| time (UTC) | temp F | wind direction | speed MPH | gust MPH | rain 1hr in | rain 24hr in | rain mn in | humidity % | barometer mb |
| 20260504045757 | 33 | 29 | 0.0 | 0.0 | 0.00 | 0.00 | 0.00 | 92 | 1015.1 |
| 20260504045256 | 33 | 29 | 0.0 | 0.0 | 0.00 | 0.00 | 0.00 | 92 | 1015.4 |
| 20260504044754 | 32 | 29 | 0.0 | 0.0 | 0.00 | 0.00 | 0.00 | 93 | 1015.3 |
| 20260504044251 | 33 | 31 | 0.0 | 0.0 | 0.00 | 0.00 | 0.00 | 93 | 1015.4 |
| 20260504043748 | 32 | 31 | 0.0 | 0.0 | 0.00 | 0.00 | 0.00 | 93 | 1015.4 |
| 20260504043245 | 32 | 31 | 0.0 | 0.0 | 0.00 | 0.00 | 0.00 | 92 | 1015.3 |
| 20260504042743 | 32 | 31 | 0.0 | 0.0 | 0.00 | 0.00 | 0.00 | 92 | 1015.0 |
| 20260504042239 | 32 | 31 | 0.0 | 0.0 | 0.00 | 0.00 | 0.00 | 91 | 1015.4 |
| 20260504041736 | 32 | 32 | 0.0 | 0.0 | 0.00 | 0.00 | 0.00 | 91 | 1015.1 |
| 20260504041232 | 33 | 32 | 0.0 | 0.0 | 0.00 | 0.00 | 0.00 | 91 | 1015.3 |
| 20260504040728 | 33 | 32 | 0.0 | 0.0 | 0.00 | 0.00 | 0.00 | 89 | 1015.4 |
| 20260504040225 | 33 | 32 | 0.0 | 0.0 | 0.00 | 0.00 | 0.00 | 88 | 1015.3 |
| 20260504035721 | 33 | 32 | 0.0 | 0.0 | 0.00 | 0.00 | 0.00 | 87 | 1015.4 |
| 20260504035219 | 33 | 22 | 0.0 | 0.0 | 0.00 | 0.00 | 0.00 | 87 | 1015.3 |
| 20260504034716 | 33 | 22 | 0.0 | 0.0 | 0.00 | 0.00 | 0.00 | 88 | 1015.3 |
| 20260504034213 | 33 | 24 | 0.0 | 0.0 | 0.00 | 0.00 | 0.00 | 88 | 1015.5 |
| 20260504033711 | 34 | 25 | 0.0 | 0.0 | 0.00 | 0.00 | 0.00 | 88 | 1015.4 |
| 20260504033208 | 34 | 24 | 0.0 | 0.0 | 0.00 | 0.00 | 0.00 | 87 | 1015.3 |
| 20260504032705 | 34 | 24 | 0.0 | 0.0 | 0.00 | 0.00 | 0.00 | 87 | 1015.5 |
| 20260504032202 | 34 | 24 | 0.0 | 0.0 | 0.00 | 0.00 | 0.00 | 87 | 1015.4 |
| 20260504031659 | 34 | 24 | 0.0 | 0.0 | 0.00 | 0.00 | 0.00 | 88 | 1015.5 |
| 20260504031155 | 34 | 24 | 0.0 | 0.0 | 0.00 | 0.00 | 0.00 | 87 | 1015.4 |
| 20260504030652 | 34 | 23 | 0.0 | 0.0 | 0.00 | 0.00 | 0.00 | 87 | 1015.4 |
| 20260504030149 | 34 | 22 | 0.0 | 0.0 | 0.00 | 0.00 | 0.00 | 85 | 1015.1 |
| 20260504025645 | 34 | 32 | 0.0 | 0.0 | 0.00 | 0.00 | 0.00 | 84 | 1015.4 |
| 20260504025142 | 35 | 32 | 0.0 | 0.0 | 0.00 | 0.00 | 0.00 | 83 | 1015.4 |
| 20260504024640 | 35 | 19 | 0.0 | 0.0 | 0.00 | 0.00 | 0.00 | 85 | 1015.5 |
| 20260504024136 | 35 | 16 | 0.0 | 0.0 | 0.00 | 0.00 | 0.00 | 85 | 1015.4 |
| 20260504023633 | 35 | 16 | 0.0 | 0.0 | 0.00 | 0.00 | 0.00 | 85 | 1015.4 |
| 20260504023129 | 35 | 17 | 0.0 | 0.0 | 0.00 | 0.00 | 0.00 | 85 | 1015.3 |
| 20260504022625 | 35 | 17 | 0.0 | 0.0 | 0.00 | 0.00 | 0.00 | 84 | 1015.5 |
| 20260504022121 | 36 | 17 | 0.0 | 0.0 | 0.00 | 0.00 | 0.00 | 83 | 1015.4 |
| 20260504021620 | 36 | 16 | 0.0 | 0.0 | 0.00 | 0.00 | 0.00 | 82 | 1015.6 |
| 20260504021116 | 37 | 15 | 0.0 | 0.0 | 0.00 | 0.00 | 0.00 | 79 | 1015.5 |
| 20260504020613 | 37 | 15 | 0.0 | 0.0 | 0.00 | 0.00 | 0.00 | 78 | 1015.5 |
| 20260504020109 | 37 | 17 | 0.0 | 0.0 | 0.00 | 0.00 | 0.00 | 80 | 1015.3 |
| 20260504015606 | 38 | 17 | 0.0 | 0.0 | 0.00 | 0.00 | 0.00 | 79 | 1015.3 |
| 20260504015101 | 38 | 17 | 0.0 | 0.0 | 0.00 | 0.00 | 0.00 | 77 | 1015.4 |
| 20260504014558 | 38 | 17 | 0.0 | 0.0 | 0.00 | 0.00 | 0.00 | 76 | 1015.3 |
| 20260504014055 | 39 | 17 | 0.0 | 0.0 | 0.00 | 0.00 | 0.00 | 76 | 1015.4 |
| 20260504013553 | 39 | 17 | 0.0 | 0.0 | 0.00 | 0.00 | 0.00 | 76 | 1015.1 |
| 20260504013049 | 39 | 17 | 0.0 | 0.0 | 0.00 | 0.00 | 0.00 | 76 | 1015.3 |
| 20260504012547 | 39 | 17 | 0.0 | 0.0 | 0.00 | 0.00 | 0.00 | 74 | 1015.1 |
| 20260504012045 | 40 | 16 | 0.0 | 0.0 | 0.00 | 0.00 | 0.00 | 73 | 1015.1 |
| 20260504011541 | 39 | 13 | 0.0 | 1.0 | 0.00 | 0.00 | 0.00 | 74 | 1015.3 |
| 20260504011037 | 40 | 17 | 0.0 | 0.0 | 0.00 | 0.00 | 0.00 | 73 | 1014.9 |
| 20260504010533 | 41 | 17 | 0.0 | 0.0 | 0.00 | 0.00 | 0.00 | 69 | 1015.4 |
| 20260504010029 | 41 | 17 | 0.0 | 0.0 | 0.00 | 0.00 | 0.00 | 66 | 1015.4 |
| 20260504005526 | 42 | 17 | 0.0 | 0.0 | 0.00 | 0.00 | 0.00 | 64 | 1015.1 |
| 20260504005024 | 42 | 15 | 0.0 | 0.0 | 0.00 | 0.00 | 0.00 | 64 | 1014.9 |
| 20260504004521 | 44 | 15 | 1.0 | 1.0 | 0.00 | 0.00 | 0.00 | 62 | 1015.1 |
| 20260504004018 | 44 | 16 | 0.0 | 0.0 | 0.00 | 0.00 | 0.00 | 58 | 1015.1 |
| 20260504003514 | 43 | 6 | 0.0 | 1.0 | 0.00 | 0.00 | 0.00 | 60 | 1014.9 |
| 20260504003011 | 44 | 16 | 0.0 | 0.0 | 0.00 | 0.00 | 0.00 | 60 | 1015.0 |
| 20260504002508 | 44 | 16 | 0.0 | 0.0 | 0.00 | 0.00 | 0.00 | 60 | 1015.0 |
| 20260504002006 | 45 | 17 | 0.0 | 0.0 | 0.00 | 0.00 | 0.00 | 57 | 1014.9 |
| 20260504001503 | 46 | 16 | 0.0 | 0.0 | 0.00 | 0.00 | 0.00 | 55 | 1014.9 |
| 20260504000959 | 46 | 33 | 0.0 | 0.0 | 0.00 | 0.00 | 0.00 | 52 | 1014.9 |
| 20260504000457 | 47 | 34 | 0.0 | 0.0 | 0.00 | 0.00 | 0.00 | 52 | 1015.1 |
| 20260503235954 | 48 | 59 | 0.0 | 1.0 | 0.00 | 0.00 | 0.00 | 51 | 1015.0 |
| 20260503235451 | 48 | 359 | 2.0 | 2.0 | 0.00 | 0.00 | 0.00 | 50 | 1015.0 |
| 20260503234948 | 48 | 46 | 1.0 | 1.0 | 0.00 | 0.00 | 0.00 | 50 | 1015.0 |
| 20260503234446 | 48 | 352 | 1.0 | 1.0 | 0.00 | 0.00 | 0.00 | 50 | 1015.0 |
| 20260503233944 | 49 | 127 | 1.0 | 1.0 | 0.00 | 0.00 | 0.00 | 48 | 1015.0 |
| 20260503233440 | 49 | 7 | 1.0 | 1.0 | 0.00 | 0.00 | 0.00 | 47 | 1014.9 |
| 20260503232936 | 49 | 339 | 2.0 | 2.0 | 0.00 | 0.00 | 0.00 | 48 | 1015.0 |
| 20260503232433 | 50 | 142 | 3.0 | 4.0 | 0.00 | 0.00 | 0.00 | 47 | 1014.7 |
| 20260503231932 | 50 | 228 | 3.0 | 3.0 | 0.00 | 0.00 | 0.00 | 47 | 1014.9 |
| 20260503231429 | 50 | 310 | 2.0 | 3.0 | 0.00 | 0.00 | 0.00 | 46 | 1014.8 |
| 20260503230925 | 50 | 286 | 2.0 | 2.0 | 0.00 | 0.00 | 0.00 | 46 | 1014.8 |
| 20260503230421 | 51 | 324 | 1.0 | 2.0 | 0.00 | 0.00 | 0.00 | 45 | 1015.0 |
| 20260503225920 | 51 | 290 | 4.0 | 4.0 | 0.00 | 0.00 | 0.00 | 45 | 1014.9 |
| 20260503225416 | 51 | 259 | 4.0 | 8.0 | 0.00 | 0.00 | 0.00 | 44 | 1014.8 |
| 20260503224911 | 51 | 296 | 1.0 | 1.0 | 0.00 | 0.00 | 0.00 | 46 | 1014.7 |
| 20260503224409 | 51 | 347 | 4.0 | 6.0 | 0.00 | 0.00 | 0.00 | 45 | 1014.8 |
| 20260503223906 | 51 | 34 | 1.0 | 3.0 | 0.00 | 0.00 | 0.00 | 46 | 1015.0 |
| 20260503223404 | 51 | 241 | 5.0 | 6.0 | 0.00 | 0.00 | 0.00 | 45 | 1014.9 |
| 20260503222859 | 51 | 282 | 4.0 | 4.0 | 0.00 | 0.00 | 0.00 | 46 | 1015.1 |
| 20260503222358 | 51 | 333 | 3.0 | 3.0 | 0.00 | 0.00 | 0.00 | 45 | 1015.0 |
| 20260503221856 | 51 | 244 | 4.0 | 7.0 | 0.00 | 0.00 | 0.00 | 45 | 1015.0 |
| 20260503221354 | 52 | 223 | 4.0 | 6.0 | 0.00 | 0.00 | 0.00 | 43 | 1015.1 |
| 20260503220850 | 53 | 264 | 3.0 | 6.0 | 0.00 | 0.00 | 0.00 | 43 | 1014.9 |
| 20260503220347 | 53 | 315 | 3.0 | 4.0 | 0.00 | 0.00 | 0.00 | 45 | 1014.9 |
| 20260503215844 | 51 | 319 | 4.0 | 6.0 | 0.00 | 0.00 | 0.00 | 44 | 1015.0 |
| 20260503215341 | 51 | 194 | 4.0 | 4.0 | 0.00 | 0.00 | 0.00 | 44 | 1015.0 |
| 20260503214839 | 53 | 343 | 2.0 | 2.0 | 0.00 | 0.00 | 0.00 | 43 | 1015.1 |
| 20260503214336 | 53 | 236 | 4.0 | 7.0 | 0.00 | 0.00 | 0.00 | 41 | 1015.1 |
| 20260503213833 | 53 | 271 | 7.0 | 8.0 | 0.00 | 0.00 | 0.00 | 43 | 1015.1 |
| 20260503213331 | 52 | 350 | 1.0 | 2.0 | 0.00 | 0.00 | 0.00 | 43 | 1015.0 |
| 20260503212827 | 52 | 241 | 3.0 | 3.0 | 0.00 | 0.00 | 0.00 | 43 | 1015.1 |
| 20260503212325 | 53 | 270 | 7.0 | 8.0 | 0.00 | 0.00 | 0.00 | 42 | 1015.0 |
| 20260503211822 | 53 | 313 | 4.0 | 4.0 | 0.00 | 0.00 | 0.00 | 44 | 1015.0 |
| 20260503211319 | 51 | 274 | 2.0 | 3.0 | 0.00 | 0.00 | 0.00 | 46 | 1015.3 |
| 20260503210819 | 52 | 221 | 7.0 | 10.0 | 0.00 | 0.00 | 0.00 | 45 | 1015.1 |
| 20260503210317 | 52 | 289 | 3.0 | 3.0 | 0.00 | 0.00 | 0.00 | 44 | 1014.9 |
| 20260503205811 | 52 | 323 | 4.0 | 4.0 | 0.00 | 0.00 | 0.00 | 43 | 1015.0 |
| 20260503205308 | 51 | 196 | 3.0 | 3.0 | 0.00 | 0.00 | 0.00 | 44 | 1015.1 |
| 20260503204805 | 51 | 46 | 2.0 | 3.0 | 0.00 | 0.00 | 0.00 | 43 | 1015.3 |
| 20260503204303 | 53 | 36 | 1.0 | 1.0 | 0.00 | 0.00 | 0.00 | 42 | 1015.3 |
| 20260503203800 | 53 | 220 | 3.0 | 4.0 | 0.00 | 0.00 | 0.00 | 41 | 1015.3 |
| 20260503203257 | 52 | 291 | 3.0 | 3.0 | 0.00 | 0.00 | 0.00 | 42 | 1015.3 |
| 20260503202754 | 52 | 186 | 3.0 | 4.0 | 0.00 | 0.00 | 0.00 | 44 | 1015.3 |
| 20260503202252 | 53 | 302 | 9.0 | 11.0 | 0.00 | 0.00 | 0.00 | 40 | 1015.3 |
| 20260503201749 | 54 | 235 | 8.0 | 10.0 | 0.00 | 0.00 | 0.00 | 41 | 1015.1 |
| 20260503201247 | 52 | 235 | 5.0 | 7.0 | 0.00 | 0.00 | 0.00 | 43 | 1015.3 |
| 20260503200743 | 54 | 12 | 2.0 | 3.0 | 0.00 | 0.00 | 0.00 | 41 | 1015.4 |
| 20260503200239 | 53 | 252 | 5.0 | 6.0 | 0.00 | 0.00 | 0.00 | 44 | 1015.4 |
| 20260503195736 | 54 | 252 | 4.0 | 6.0 | 0.00 | 0.00 | 0.00 | 42 | 1015.4 |
| 20260503195233 | 53 | 193 | 4.0 | 7.0 | 0.00 | 0.00 | 0.00 | 44 | 1015.5 |
| 20260503194731 | 53 | 259 | 6.0 | 8.0 | 0.00 | 0.00 | 0.00 | 43 | 1015.5 |
| 20260503194226 | 54 | 261 | 5.0 | 6.0 | 0.00 | 0.00 | 0.00 | 39 | 1015.6 |
| 20260503193723 | 51 | 341 | 2.0 | 2.0 | 0.00 | 0.00 | 0.00 | 45 | 1015.5 |
| 20260503193219 | 52 | 15 | 2.0 | 4.0 | 0.00 | 0.00 | 0.00 | 45 | 1015.6 |
| 20260503192715 | 52 | 48 | 4.0 | 6.0 | 0.00 | 0.00 | 0.00 | 43 | 1015.8 |
| 20260503192210 | 53 | 216 | 4.0 | 6.0 | 0.00 | 0.00 | 0.00 | 43 | 1015.6 |
| 20260503191707 | 54 | 67 | 3.0 | 4.0 | 0.00 | 0.00 | 0.00 | 44 | 1015.7 |
| 20260503191204 | 53 | 349 | 2.0 | 2.0 | 0.00 | 0.00 | 0.00 | 44 | 1015.7 |
| 20260503190701 | 52 | 314 | 3.0 | 3.0 | 0.00 | 0.00 | 0.00 | 44 | 1015.7 |
| 20260503190158 | 52 | 223 | 9.0 | 13.0 | 0.00 | 0.00 | 0.00 | 43 | 1015.6 |
| 20260503185655 | 52 | 304 | 6.0 | 8.0 | 0.00 | 0.00 | 0.00 | 44 | 1015.8 |
| 20260503185150 | 51 | 319 | 3.0 | 3.0 | 0.00 | 0.00 | 0.00 | 44 | 1015.8 |
| 20260503184645 | 52 | 36 | 3.0 | 4.0 | 0.00 | 0.00 | 0.00 | 43 | 1016.0 |
| 20260503184142 | 51 | 6 | 1.0 | 4.0 | 0.00 | 0.00 | 0.00 | 45 | 1015.9 |
| 20260503183638 | 50 | 270 | 2.0 | 2.0 | 0.00 | 0.00 | 0.00 | 48 | 1016.0 |
| 20260503183136 | 51 | 211 | 3.0 | 3.0 | 0.00 | 0.00 | 0.00 | 46 | 1016.0 |
| 20260503182634 | 51 | 346 | 7.0 | 9.0 | 0.00 | 0.00 | 0.00 | 44 | 1016.1 |
| 20260503182132 | 50 | 279 | 5.0 | 8.0 | 0.00 | 0.00 | 0.00 | 46 | 1016.3 |
| 20260503181629 | 52 | 334 | 6.0 | 10.0 | 0.00 | 0.00 | 0.00 | 44 | 1016.0 |
| 20260503181125 | 51 | 329 | 3.0 | 4.0 | 0.00 | 0.00 | 0.00 | 44 | 1016.2 |
| 20260503180622 | 52 | 337 | 1.0 | 2.0 | 0.00 | 0.00 | 0.00 | 46 | 1016.0 |
| 20260503180120 | 50 | 80 | 1.0 | 3.0 | 0.00 | 0.00 | 0.00 | 47 | 1016.3 |
| 20260503175617 | 51 | 25 | 2.0 | 3.0 | 0.00 | 0.00 | 0.00 | 47 | 1016.3 |
| 20260503175114 | 50 | 170 | 5.0 | 8.0 | 0.00 | 0.00 | 0.00 | 48 | 1016.3 |
| 20260503174611 | 49 | 356 | 3.0 | 4.0 | 0.00 | 0.00 | 0.00 | 48 | 1016.5 |
| 20260503174108 | 50 | 317 | 2.0 | 2.0 | 0.00 | 0.00 | 0.00 | 45 | 1016.4 |
| 20260503173602 | 48 | 214 | 8.0 | 10.0 | 0.00 | 0.00 | 0.00 | 46 | 1016.2 |
| 20260503173059 | 49 | 64 | 3.0 | 6.0 | 0.00 | 0.00 | 0.00 | 48 | 1016.5 |
| 20260503172556 | 47 | 262 | 5.0 | 6.0 | 0.00 | 0.00 | 0.00 | 50 | 1016.4 |
| 20260503172053 | 47 | 10 | 5.0 | 7.0 | 0.00 | 0.00 | 0.00 | 48 | 1016.5 |
| 20260503171550 | 48 | 12 | 1.0 | 2.0 | 0.00 | 0.00 | 0.00 | 48 | 1016.4 |
| 20260503171047 | 48 | 193 | 2.0 | 6.0 | 0.00 | 0.00 | 0.00 | 48 | 1016.5 |
| 20260503170543 | 48 | 0 | 4.0 | 6.0 | 0.00 | 0.00 | 0.00 | 47 | 1016.8 |
| 20260503150936 | 45 | 263 | 6.0 | 7.0 | 0.00 | 0.00 | 0.00 | 51 | 1017.2 |
| 20260503150433 | 44 | 288 | 5.0 | 7.0 | 0.00 | 0.00 | 0.00 | 51 | 1017.1 |
| 20260503131326 | 40 | 47 | 1.0 | 1.0 | 0.00 | 0.00 | 0.00 | 68 | 1016.8 |
| 20260503130823 | 40 | 255 | 3.0 | 6.0 | 0.00 | 0.00 | 0.00 | 70 | 1017.0 |
| 20260503130321 | 40 | 69 | 1.0 | 2.0 | 0.00 | 0.00 | 0.00 | 69 | 1017.0 |
| 20260503110714 | 30 | 333 | 2.0 | 2.0 | 0.00 | 0.00 | 0.00 | 89 | 1016.4 |
| 20260503110211 | 30 | 70 | 0.0 | 0.0 | 0.00 | 0.00 | 0.00 | 90 | 1016.3 |
| 20260503100138 | 28 | 37 | 0.0 | 0.0 | 0.00 | 0.00 | 0.00 | 92 | 1015.4 |
| 20260503081527 | 30 | 37 | 0.0 | 0.0 | 0.00 | 0.00 | 0.00 | 88 | 1015.0 |
| 20260503081025 | 30 | 50 | 0.0 | 0.0 | 0.00 | 0.00 | 0.00 | 87 | 1015.1 |
| 20260503080520 | 30 | 21 | 1.0 | 1.0 | 0.00 | 0.00 | 0.00 | 88 | 1015.1 |
| 20260503072454 | 30 | 16 | 0.0 | 1.0 | 0.00 | 0.00 | 0.00 | 88 | 1014.7 |
| 20260503071951 | 30 | 359 | 1.0 | 1.0 | 0.00 | 0.00 | 0.00 | 88 | 1014.7 |
| 20260503071448 | 30 | 23 | 1.0 | 1.0 | 0.00 | 0.00 | 0.00 | 89 | 1014.9 |
| 20260503070944 | 30 | 355 | 0.0 | 0.0 | 0.00 | 0.00 | 0.00 | 89 | 1014.6 |
| 20260503070441 | 30 | 22 | 0.0 | 0.0 | 0.00 | 0.00 | 0.00 | 88 | 1014.7 |
| 20260503054900 | 32 | 357 | 1.0 | 2.0 | 0.00 | 0.00 | 0.00 | 86 | 1014.8 |
| 20260503054356 | 32 | 8 | 0.0 | 1.0 | 0.00 | 0.00 | 0.00 | 87 | 1014.7 |
| 20260503053854 | 32 | 341 | 0.0 | 0.0 | 0.00 | 0.00 | 0.00 | 86 | 1014.8 |
| 20260503053352 | 32 | 343 | 1.0 | 1.0 | 0.00 | 0.00 | 0.00 | 86 | 1014.7 |
| 20260503052848 | 32 | 6 | 1.0 | 2.0 | 0.00 | 0.00 | 0.00 | 86 | 1014.6 |
| 20260503052345 | 33 | 357 | 3.0 | 4.0 | 0.00 | 0.00 | 0.00 | 86 | 1014.5 |
| 20260503051841 | 33 | 36 | 0.0 | 0.0 | 0.00 | 0.00 | 0.00 | 85 | 1014.7 |
| 20260503051338 | 33 | 343 | 1.0 | 2.0 | 0.00 | 0.00 | 0.00 | 85 | 1014.9 |
| 20260503050835 | 33 | 339 | 0.0 | 1.0 | 0.00 | 0.00 | 0.00 | 85 | 1014.6 |
| 20260503050331 | 33 | 332 | 1.0 | 2.0 | 0.00 | 0.00 | 0.00 | 85 | 1014.8 |